Location: Kearney
(40.6990°N, 99.0810°W)
Time: 10:07:13
(UTC-06:00)

SL-16 R/B - Pass Details

Date: 18 December 2017
Orbit: 842 x 846 km, 71.0° (Epoch: 22 January)

Event Time Altitude Azimuth Distance (km) Brightness Sun altitude
Rises 18:23:21 0° 156° (SSE) 3,385 5.3 -13.2°
Reaches altitude 10° 18:26:40 10° 136° (SE) 2,457 4.4 -13.8°
Enters shadow 18:29:57 17° 100° (E) 2,037 3.7 -14.4°
